TimeCST,TemperatureF,Dew PointF,Humidity,Sea Level PressureIn,VisibilityMPH,Wind Direction,Wind SpeedMPH,Gust SpeedMPH,PrecipitationIn,Events,Conditions,WindDirDegrees,DateUTC
12:13 AM,20.1,15.1,81,29.70,10.0,SSW,8.1,-,N/A,,Clear,210,2014-01-19 06:13:00
12:33 AM,21.2,16.2,81,29.69,10.0,SW,8.1,18.4,N/A,,Clear,220,2014-01-19 06:33:00
12:52 AM,22.1,17.1,81,29.67,10.0,SSW,12.7,17.3,N/A,,Clear,210,2014-01-19 06:52:00
1:13 AM,23.0,18.1,82,29.65,10.0,SW,12.7,19.6,N/A,,Clear,220,2014-01-19 07:13:00
1:33 AM,24.8,19.8,81,29.64,10.0,SW,12.7,20.7,N/A,,Clear,230,2014-01-19 07:33:00
1:52 AM,25.7,20.7,81,29.64,10.0,SW,10.4,17.3,N/A,,Clear,230,2014-01-19 07:52:00
2:13 AM,25.9,20.5,80,29.63,10.0,SW,12.7,19.6,N/A,,Clear,230,2014-01-19 08:13:00
2:33 AM,25.9,20.3,79,29.62,10.0,SW,11.5,18.4,N/A,,Clear,230,2014-01-19 08:33:00
2:52 AM,25.2,19.9,81,29.61,10.0,SW,11.5,17.3,N/A,,Clear,220,2014-01-19 08:52:00
3:13 AM,25.2,19.9,81,29.60,10.0,SW,9.2,17.3,N/A,,Clear,220,2014-01-19 09:13:00
3:32 AM,25.9,20.3,79,29.59,10.0,SW,9.2,16.1,N/A,,Clear,230,2014-01-19 09:32:00
3:53 AM,26.4,20.3,78,29.59,10.0,SW,11.5,18.4,N/A,,Clear,230,2014-01-19 09:53:00
4:12 AM,26.6,20.3,77,29.58,10.0,SW,9.2,17.3,N/A,,Clear,230,2014-01-19 10:12:00
4:33 AM,26.2,20.1,78,29.57,10.0,WSW,11.5,17.3,N/A,,Clear,240,2014-01-19 10:33:00
4:52 AM,26.4,20.1,77,29.56,10.0,WSW,10.4,-,N/A,,Clear,240,2014-01-19 10:52:00
5:13 AM,26.6,19.9,76,29.56,10.0,SW,9.2,-,N/A,,Clear,230,2014-01-19 11:13:00
5:33 AM,27.0,19.6,74,29.55,10.0,WSW,8.1,-,N/A,,Clear,240,2014-01-19 11:33:00
5:53 AM,27.5,19.4,72,29.56,10.0,WSW,5.8,-,N/A,,Clear,240,2014-01-19 11:53:00
6:13 AM,28.6,20.3,71,29.55,10.0,WSW,5.8,-,N/A,,Clear,240,2014-01-19 12:13:00
6:33 AM,28.8,20.1,70,29.55,10.0,WSW,4.6,-,N/A,,Clear,240,2014-01-19 12:33:00
6:53 AM,27.7,19.6,72,29.54,10.0,WSW,6.9,-,N/A,,Clear,250,2014-01-19 12:53:00
7:13 AM,28.2,20.1,72,29.54,10.0,West,8.1,-,N/A,,Clear,260,2014-01-19 13:13:00
7:33 AM,29.1,20.3,70,29.54,10.0,West,8.1,-,N/A,,Clear,260,2014-01-19 13:33:00
7:53 AM,29.3,20.3,69,29.53,10.0,West,6.9,-,N/A,,Clear,260,2014-01-19 13:53:00
8:13 AM,27.7,19.8,72,29.53,10.0,WSW,3.5,-,N/A,,Clear,240,2014-01-19 14:13:00
8:33 AM,27.0,20.1,75,29.53,10.0,SW,3.5,-,N/A,,Clear,220,2014-01-19 14:33:00
8:53 AM,29.8,21.4,71,29.53,10.0,SW,6.9,-,N/A,,Clear,230,2014-01-19 14:53:00
9:13 AM,30.0,21.9,72,29.55,10.0,SW,6.9,-,N/A,,Clear,230,2014-01-19 15:13:00
9:33 AM,30.0,21.7,71,29.57,10.0,WSW,4.6,-,N/A,,Clear,240,2014-01-19 15:33:00
9:53 AM,30.2,21.7,71,29.57,10.0,West,5.8,-,N/A,,Clear,260,2014-01-19 15:53:00
10:13 AM,31.8,22.6,69,29.56,10.0,WSW,5.8,-,N/A,,Clear,250,2014-01-19 16:13:00
10:33 AM,33.1,23.0,66,29.55,10.0,WSW,5.8,-,N/A,,Clear,250,2014-01-19 16:33:00
10:53 AM,33.4,23.7,68,29.54,10.0,WSW,5.8,-,N/A,,Clear,240,2014-01-19 16:53:00
11:13 AM,34.3,24.1,66,29.50,10.0,WSW,4.6,-,N/A,,Clear,240,2014-01-19 17:13:00
11:33 AM,35.4,24.4,64,29.49,10.0,SW,5.8,-,N/A,,Clear,230,2014-01-19 17:33:00
11:53 AM,35.4,25.0,66,29.49,10.0,WSW,5.8,-,N/A,,Clear,240,2014-01-19 17:53:00
12:13 PM,35.6,25.5,67,29.50,10.0,WSW,8.1,-,N/A,,Clear,250,2014-01-19 18:13:00
12:33 PM,35.8,26.1,68,29.48,10.0,West,6.9,-,N/A,,Clear,260,2014-01-19 18:33:00
12:53 PM,36.1,26.1,67,29.48,10.0,WSW,8.1,-,N/A,,Clear,250,2014-01-19 18:53:00
1:13 PM,36.5,26.6,67,29.46,10.0,WSW,8.1,-,N/A,,Clear,250,2014-01-19 19:13:00
1:33 PM,37.4,27.0,66,29.45,10.0,WSW,5.8,-,N/A,,Clear,250,2014-01-19 19:33:00
1:53 PM,37.4,26.8,66,29.43,10.0,WSW,4.6,-,N/A,,Clear,240,2014-01-19 19:53:00
2:13 PM,37.2,27.1,67,29.45,10.0,West,9.2,-,N/A,,Clear,270,2014-01-19 20:13:00
2:33 PM,37.0,27.3,68,29.45,10.0,WSW,5.8,-,N/A,,Clear,240,2014-01-19 20:33:00
2:52 PM,36.5,27.5,70,29.46,10.0,West,9.2,-,N/A,,Clear,260,2014-01-19 20:52:00
3:13 PM,36.5,27.5,70,29.48,10.0,West,12.7,-,N/A,,Clear,270,2014-01-19 21:13:00
3:33 PM,36.9,27.5,69,29.48,10.0,West,10.4,-,N/A,,Clear,280,2014-01-19 21:33:00
3:53 PM,36.5,27.3,69,29.48,10.0,West,12.7,-,N/A,,Clear,270,2014-01-19 21:53:00
4:13 PM,36.0,27.3,71,29.50,10.0,West,11.5,-,N/A,,Clear,280,2014-01-19 22:13:00
4:33 PM,35.8,27.3,71,29.51,10.0,West,11.5,-,N/A,,Clear,280,2014-01-19 22:33:00
4:53 PM,35.1,27.3,73,29.53,10.0,West,10.4,-,N/A,,Clear,280,2014-01-19 22:53:00
5:13 PM,34.3,27.3,76,29.55,10.0,WNW,10.4,-,N/A,,Scattered Clouds,300,2014-01-19 23:13:00
5:33 PM,35.6,26.6,70,29.56,10.0,NW,17.3,-,N/A,,Mostly Cloudy,310,2014-01-19 23:33:00
5:53 PM,34.9,26.6,72,29.58,10.0,WNW,13.8,19.6,N/A,,Overcast,300,2014-01-19 23:53:00
6:12 PM,34.7,26.2,71,29.58,10.0,WNW,16.1,-,N/A,,Overcast,290,2014-01-20 00:12:00
6:33 PM,34.0,25.9,72,29.60,10.0,WNW,15.0,20.7,N/A,,Overcast,300,2014-01-20 00:33:00
6:52 PM,33.4,26.1,74,29.61,10.0,WNW,13.8,18.4,N/A,,Overcast,290,2014-01-20 00:52:00
7:13 PM,32.9,25.5,74,29.63,10.0,WNW,13.8,-,N/A,,Overcast,290,2014-01-20 01:13:00
7:33 PM,32.0,24.8,75,29.64,10.0,WNW,12.7,-,N/A,,Mostly Cloudy,290,2014-01-20 01:33:00
7:52 PM,31.3,24.4,76,29.64,10.0,WNW,8.1,-,N/A,,Scattered Clouds,290,2014-01-20 01:52:00
8:13 PM,30.2,23.7,77,29.65,10.0,West,8.1,-,N/A,,Scattered Clouds,270,2014-01-20 02:13:00
8:33 PM,28.8,23.0,79,29.65,10.0,West,8.1,-,N/A,,Clear,270,2014-01-20 02:33:00
8:53 PM,27.5,22.1,80,29.66,10.0,West,8.1,-,N/A,,Clear,270,2014-01-20 02:53:00
9:13 PM,26.6,21.9,82,29.67,10.0,West,8.1,-,N/A,,Clear,280,2014-01-20 03:13:00
9:33 PM,28.4,23.7,83,29.68,10.0,West,10.4,-,N/A,,Scattered Clouds,280,2014-01-20 03:33:00
9:53 PM,30.2,24.8,80,29.69,10.0,West,9.2,-,N/A,,Overcast,280,2014-01-20 03:53:00
10:12 PM,30.2,24.8,80,29.70,10.0,WNW,8.1,-,N/A,,Overcast,290,2014-01-20 04:12:00
10:33 PM,29.8,24.4,80,29.70,10.0,West,8.1,-,N/A,,Overcast,270,2014-01-20 04:33:00
10:52 PM,28.8,23.5,81,29.72,10.0,West,8.1,-,N/A,,Overcast,270,2014-01-20 04:52:00
11:13 PM,29.1,23.9,81,29.72,10.0,West,8.1,-,N/A,,Overcast,280,2014-01-20 05:13:00
11:32 PM,28.9,23.5,80,29.72,10.0,West,5.8,-,N/A,,Overcast,280,2014-01-20 05:32:00
11:53 PM,28.2,23.0,81,29.71,10.0,West,4.6,-,N/A,,Overcast,270,2014-01-20 05:53:00